Time,TemperatureF,DewpointF,PressureIn,WindDirection,WindDirectionDegrees,WindSpeedMPH,WindSpeedGustMPH,Humidity,HourlyPrecipIn,Conditions,Clouds,dailyrainin,SoftwareType,DateUTC
2013-01-13 00:02:00,64.8,59.1,29.70,West,270,0.0,4.7,82,0.00,,,0.00,WUHU21623XXSP,2013-01-13 06:02:00,
2013-01-13 00:15:00,64.2,58.9,29.70,West,270,0.0,0.0,83,0.00,,,0.00,WUHU21623XXSP,2013-01-13 06:15:00,
2013-01-13 00:20:00,64.2,59.3,29.70,West,270,0.0,1.6,84,0.00,,,0.00,WUHU21623XXSP,2013-01-13 06:20:00,
2013-01-13 00:25:00,64.2,59.3,29.70,WSW,247,0.0,1.6,84,0.00,,,0.00,WUHU21623XXSP,2013-01-13 06:25:00,
2013-01-13 00:30:00,64.2,59.3,29.69,West,270,0.0,3.8,84,0.00,,,0.00,WUHU21623XXSP,2013-01-13 06:30:00,
2013-01-13 00:35:00,64.0,59.1,29.70,West,270,0.0,3.8,84,0.00,,,0.00,WUHU21623XXSP,2013-01-13 06:35:00,
2013-01-13 00:40:00,64.0,59.1,29.70,West,270,2.0,2.9,84,0.00,,,0.00,WUHU21623XXSP,2013-01-13 06:40:00,
2013-01-13 00:45:00,63.9,58.9,29.70,West,270,0.0,2.9,84,0.00,,,0.00,WUHU21623XXSP,2013-01-13 06:45:00,
2013-01-13 00:50:00,63.7,59.1,29.69,West,270,2.0,2.0,85,0.00,,,0.00,WUHU21623XXSP,2013-01-13 06:50:00,
2013-01-13 00:55:00,63.7,59.1,29.69,SW,225,0.0,2.0,85,0.00,,,0.00,WUHU21623XXSP,2013-01-13 06:55:00,
2013-01-13 01:00:00,63.7,59.1,29.69,SW,225,1.3,3.6,85,0.00,,,0.00,WUHU21623XXSP,2013-01-13 07:00:00,
2013-01-13 01:05:00,63.7,59.1,29.69,SW,225,1.3,3.6,85,0.00,,,0.00,WUHU21623XXSP,2013-01-13 07:05:00,
2013-01-13 01:15:00,63.7,59.1,29.69,West,270,1.6,1.6,85,0.00,,,0.00,WUHU21623XXSP,2013-01-13 07:15:00,
2013-01-13 01:20:00,63.7,59.1,29.69,West,270,0.0,1.6,85,0.00,,,0.00,WUHU21623XXSP,2013-01-13 07:20:00,
2013-01-13 01:25:00,63.7,59.4,29.68,WSW,247,0.0,0.0,86,0.00,,,0.00,WUHU21623XXSP,2013-01-13 07:25:00,
2013-01-13 01:30:00,63.5,59.3,29.68,West,270,1.8,1.8,86,0.00,,,0.00,WUHU21623XXSP,2013-01-13 07:30:00,
2013-01-13 01:35:00,63.5,59.3,29.68,WSW,247,1.6,2.5,86,0.00,,,0.00,WUHU21623XXSP,2013-01-13 07:35:00,
2013-01-13 01:40:00,63.7,59.4,29.68,West,270,1.3,2.5,86,0.00,,,0.00,WUHU21623XXSP,2013-01-13 07:40:00,
2013-01-13 01:45:00,63.7,59.4,29.68,NNW,337,0.0,1.6,86,0.00,,,0.00,WUHU21623XXSP,2013-01-13 07:45:00,
2013-01-13 01:50:00,63.7,59.4,29.69,West,270,0.0,2.0,86,0.00,,,0.00,WUHU21623XXSP,2013-01-13 07:50:00,
2013-01-13 01:55:00,63.7,59.4,29.69,West,270,0.0,2.0,86,0.00,,,0.00,WUHU21623XXSP,2013-01-13 07:55:00,
2013-01-13 02:00:00,63.7,59.4,29.69,West,270,0.0,0.0,86,0.00,,,0.00,WUHU21623XXSP,2013-01-13 08:00:00,
2013-01-13 02:05:00,64.0,59.8,29.69,West,270,3.8,3.8,86,0.00,,,0.00,WUHU21623XXSP,2013-01-13 08:05:00,
2013-01-13 02:10:00,64.0,59.8,29.70,WSW,247,4.3,4.3,86,0.00,,,0.00,WUHU21623XXSP,2013-01-13 08:10:00,
2013-01-13 02:15:00,64.2,59.8,29.69,SW,225,4.9,4.9,86,0.00,,,0.00,WUHU21623XXSP,2013-01-13 08:15:00,
2013-01-13 02:20:00,64.2,60.0,29.68,West,270,0.0,4.9,86,0.00,,,0.00,WUHU21623XXSP,2013-01-13 08:20:00,
2013-01-13 02:25:00,64.2,60.0,29.69,ENE,67,0.0,4.9,86,0.00,,,0.00,WUHU21623XXSP,2013-01-13 08:25:00,
2013-01-13 02:30:00,64.2,60.0,29.69,West,270,6.5,6.5,86,0.00,,,0.00,WUHU21623XXSP,2013-01-13 08:30:00,
2013-01-13 02:35:00,64.2,60.0,29.69,West,270,2.2,6.5,86,0.00,,,0.00,WUHU21623XXSP,2013-01-13 08:35:00,
2013-01-13 02:40:00,64.2,60.0,29.69,West,270,0.0,2.2,86,0.00,,,0.00,WUHU21623XXSP,2013-01-13 08:40:00,
2013-01-13 02:45:00,64.2,60.0,29.68,West,270,0.0,0.0,86,0.00,,,0.00,WUHU21623XXSP,2013-01-13 08:45:00,
2013-01-13 02:50:00,64.4,60.2,29.68,WNW,292,1.1,2.0,86,0.00,,,0.00,WUHU21623XXSP,2013-01-13 08:50:00,
2013-01-13 02:55:00,64.4,60.2,29.68,WNW,292,1.8,2.0,86,0.00,,,0.00,WUHU21623XXSP,2013-01-13 08:55:00,
2013-01-13 03:00:00,64.6,60.3,29.68,SW,225,0.0,1.8,86,0.00,,,0.00,WUHU21623XXSP,2013-01-13 09:00:00,
2013-01-13 03:05:00,64.6,60.3,29.68,West,270,0.0,1.8,86,0.00,,,0.00,WUHU21623XXSP,2013-01-13 09:05:00,
2013-01-13 03:10:00,64.6,60.3,29.67,West,270,0.9,1.1,86,0.00,,,0.00,WUHU21623XXSP,2013-01-13 09:10:00,
2013-01-13 03:15:00,64.6,60.3,29.68,WNW,292,0.0,0.9,86,0.00,,,0.00,WUHU21623XXSP,2013-01-13 09:15:00,
2013-01-13 03:20:00,64.6,60.3,29.67,NNW,337,0.0,0.9,86,0.00,,,0.00,WUHU21623XXSP,2013-01-13 09:20:00,
2013-01-13 03:25:00,64.6,60.3,29.67,WNW,292,0.0,0.0,86,0.00,,,0.00,WUHU21623XXSP,2013-01-13 09:25:00,
2013-01-13 03:30:00,64.6,60.3,29.67,WSW,247,0.0,0.0,86,0.00,,,0.00,WUHU21623XXSP,2013-01-13 09:30:00,
2013-01-13 03:35:00,64.6,60.3,29.67,West,270,0.0,0.0,86,0.00,,,0.00,WUHU21623XXSP,2013-01-13 09:35:00,
2013-01-13 03:40:00,64.6,60.3,29.67,SE,135,5.1,5.1,86,0.00,,,0.00,WUHU21623XXSP,2013-01-13 09:40:00,
2013-01-13 03:45:00,64.6,60.3,29.67,West,270,0.0,5.1,86,0.00,,,0.00,WUHU21623XXSP,2013-01-13 09:45:00,
2013-01-13 03:50:00,64.6,60.3,29.66,West,270,0.0,2.9,86,0.00,,,0.00,WUHU21623XXSP,2013-01-13 09:50:00,
2013-01-13 03:55:00,64.6,60.7,29.66,WSW,247,7.2,7.2,87,0.00,,,0.00,WUHU21623XXSP,2013-01-13 09:55:00,
2013-01-13 04:00:00,64.6,60.7,29.66,WNW,292,4.9,7.2,87,0.00,,,0.00,WUHU21623XXSP,2013-01-13 10:00:00,
2013-01-13 04:05:00,64.6,60.7,29.66,WNW,292,0.0,4.9,87,0.00,,,0.00,WUHU21623XXSP,2013-01-13 10:05:00,
2013-01-13 04:10:00,64.8,60.5,29.66,WNW,292,0.0,3.4,86,0.00,,,0.00,WUHU21623XXSP,2013-01-13 10:10:00,
2013-01-13 04:15:00,64.8,60.8,29.67,WSW,247,1.3,2.5,87,0.00,,,0.00,WUHU21623XXSP,2013-01-13 10:15:00,
2013-01-13 04:20:00,64.9,61.0,29.67,WSW,247,0.0,2.5,87,0.00,,,0.00,WUHU21623XXSP,2013-01-13 10:20:00,
2013-01-13 04:25:00,64.9,61.0,29.67,West,270,3.4,3.4,86,0.00,,,0.00,WUHU21623XXSP,2013-01-13 10:25:00,
2013-01-13 04:30:00,64.9,60.7,29.67,NW,315,0.0,3.4,86,0.00,,,0.00,WUHU21623XXSP,2013-01-13 10:30:00,
2013-01-13 04:35:00,64.9,61.0,29.67,West,270,4.0,4.0,87,0.00,,,0.00,WUHU21623XXSP,2013-01-13 10:35:00,
2013-01-13 04:40:00,64.9,61.0,29.67,NNE,22,0.0,4.0,87,0.00,,,0.00,WUHU21623XXSP,2013-01-13 10:40:00,
2013-01-13 04:45:00,64.9,61.0,29.67,West,270,3.1,3.1,87,0.00,,,0.00,WUHU21623XXSP,2013-01-13 10:45:00,
2013-01-13 04:50:00,65.1,61.2,29.67,WSW,247,1.6,3.1,87,0.00,,,0.00,WUHU21623XXSP,2013-01-13 10:50:00,
2013-01-13 04:55:00,65.1,61.2,29.67,WSW,247,1.3,6.5,87,0.00,,,0.00,WUHU21623XXSP,2013-01-13 10:55:00,
2013-01-13 05:00:00,65.1,61.2,29.67,West,270,0.0,6.5,87,0.00,,,0.00,WUHU21623XXSP,2013-01-13 11:00:00,
2013-01-13 05:05:00,65.1,61.2,29.67,West,270,0.0,3.8,87,0.00,,,0.00,WUHU21623XXSP,2013-01-13 11:05:00,
2013-01-13 05:10:00,65.1,61.2,29.67,NW,315,0.0,3.8,87,0.00,,,0.00,WUHU21623XXSP,2013-01-13 11:10:00,
2013-01-13 05:15:00,65.3,61.3,29.68,WNW,292,1.6,1.6,87,0.00,,,0.00,WUHU21623XXSP,2013-01-13 11:15:00,
2013-01-13 05:20:00,65.1,61.2,29.68,West,270,0.0,1.6,87,0.00,,,0.00,WUHU21623XXSP,2013-01-13 11:20:00,
2013-01-13 05:25:00,65.1,61.2,29.68,West,270,2.0,2.0,87,0.00,,,0.00,WUHU21623XXSP,2013-01-13 11:25:00,
2013-01-13 05:30:00,65.1,61.2,29.68,WNW,292,0.0,2.5,87,0.00,,,0.00,WUHU21623XXSP,2013-01-13 11:30:00,
2013-01-13 05:35:00,65.1,61.2,29.69,West,270,4.9,4.9,87,0.00,,,0.00,WUHU21623XXSP,2013-01-13 11:35:00,
2013-01-13 05:40:00,65.3,61.3,29.70,WSW,247,1.8,4.9,87,0.00,,,0.00,WUHU21623XXSP,2013-01-13 11:40:00,
2013-01-13 05:45:00,65.3,61.3,29.70,WNW,292,4.9,4.9,87,0.00,,,0.00,WUHU21623XXSP,2013-01-13 11:45:00,
2013-01-13 05:50:00,65.5,61.5,29.71,West,270,0.0,4.9,87,0.00,,,0.00,WUHU21623XXSP,2013-01-13 11:50:00,
2013-01-13 05:55:00,65.7,61.3,29.71,West,270,0.0,2.9,86,0.00,,,0.00,WUHU21623XXSP,2013-01-13 11:55:00,
2013-01-13 06:00:00,65.8,61.5,29.72,WSW,247,0.0,2.0,86,0.00,,,0.00,WUHU21623XXSP,2013-01-13 12:00:00,
2013-01-13 06:05:00,65.8,61.5,29.72,WSW,247,0.0,1.8,86,0.00,,,0.00,WUHU21623XXSP,2013-01-13 12:05:00,
2013-01-13 06:10:00,65.8,61.5,29.72,West,270,0.0,0.0,86,0.00,,,0.00,WUHU21623XXSP,2013-01-13 12:10:00,
2013-01-13 06:15:00,66.0,61.7,29.72,WNW,292,7.6,7.6,86,0.00,,,0.00,WUHU21623XXSP,2013-01-13 12:15:00,
2013-01-13 06:20:00,66.0,61.3,29.72,West,270,0.0,7.6,85,0.00,,,0.00,WUHU21623XXSP,2013-01-13 12:20:00,
2013-01-13 06:25:00,66.0,61.3,29.73,West,270,0.0,7.6,85,0.00,,,0.00,WUHU21623XXSP,2013-01-13 12:25:00,
2013-01-13 06:30:00,66.0,61.3,29.72,NW,315,0.0,3.4,85,0.00,,,0.00,WUHU21623XXSP,2013-01-13 12:30:00,
2013-01-13 06:35:00,66.2,61.5,29.73,NW,315,0.0,3.4,85,0.00,,,0.00,WUHU21623XXSP,2013-01-13 12:35:00,
2013-01-13 06:40:00,66.2,61.5,29.72,West,270,1.6,5.6,85,0.00,,,0.00,WUHU21623XXSP,2013-01-13 12:40:00,
2013-01-13 06:45:00,66.2,61.5,29.73,West,270,0.0,5.6,85,0.00,,,0.00,WUHU21623XXSP,2013-01-13 12:45:00,
2013-01-13 06:50:00,66.0,61.3,29.73,West,270,0.0,0.0,85,0.00,,,0.00,WUHU21623XXSP,2013-01-13 12:50:00,
2013-01-13 06:55:00,66.0,61.3,29.73,West,270,0.0,0.0,85,0.00,,,0.00,WUHU21623XXSP,2013-01-13 12:55:00,
2013-01-13 07:00:00,66.0,61.3,29.73,West,270,1.1,1.1,85,0.00,,,0.00,WUHU21623XXSP,2013-01-13 13:00:00,
2013-01-13 07:05:00,66.0,61.3,29.73,West,270,0.0,1.1,85,0.00,,,0.00,WUHU21623XXSP,2013-01-13 13:05:00,
2013-01-13 07:10:00,66.0,61.3,29.73,West,270,0.0,0.0,85,0.00,,,0.00,WUHU21623XXSP,2013-01-13 13:10:00,
2013-01-13 07:15:00,66.0,61.3,29.73,West,270,0.0,1.3,85,0.00,,,0.00,WUHU21623XXSP,2013-01-13 13:15:00,
2013-01-13 07:20:00,65.8,61.5,29.73,WNW,292,0.0,1.3,86,0.00,,,0.00,WUHU21623XXSP,2013-01-13 13:20:00,
2013-01-13 07:25:00,65.8,61.5,29.73,West,270,0.0,0.0,86,0.00,,,0.00,WUHU21623XXSP,2013-01-13 13:25:00,
2013-01-13 07:30:00,65.8,61.5,29.73,WNW,292,0.0,0.0,86,0.00,,,0.00,WUHU21623XXSP,2013-01-13 13:30:00,
2013-01-13 07:35:00,65.8,61.3,29.73,WNW,292,0.0,0.0,86,0.00,,,0.00,WUHU21623XXSP,2013-01-13 13:35:00,
2013-01-13 07:40:00,65.7,61.3,29.73,WNW,292,0.0,0.0,86,0.00,,,0.00,WUHU21623XXSP,2013-01-13 13:40:00,
2013-01-13 07:45:00,65.7,61.2,29.73,WNW,292,0.0,0.0,86,0.00,,,0.00,WUHU21623XXSP,2013-01-13 13:45:00,
2013-01-13 07:50:00,65.5,61.2,29.73,WNW,292,0.0,0.0,86,0.00,,,0.00,WUHU21623XXSP,2013-01-13 13:50:00,
2013-01-13 07:55:00,65.3,61.0,29.73,WNW,292,0.0,0.0,86,0.00,,,0.00,WUHU21623XXSP,2013-01-13 13:55:00,
2013-01-13 08:00:00,65.1,61.2,29.73,WNW,292,0.0,0.0,87,0.00,,,0.00,WUHU21623XXSP,2013-01-13 14:00:00,
2013-01-13 08:05:00,65.1,61.2,29.73,WNW,292,0.0,0.0,87,0.00,,,0.00,WUHU21623XXSP,2013-01-13 14:05:00,
2013-01-13 08:10:00,64.9,61.0,29.73,WNW,292,0.0,0.0,87,0.02,,,0.02,WUHU21623XXSP,2013-01-13 14:10:00,
2013-01-13 08:15:00,64.8,60.8,29.73,WNW,292,0.0,2.5,87,0.02,,,0.02,WUHU21623XXSP,2013-01-13 14:15:00,
2013-01-13 08:20:00,64.8,60.8,29.73,WNW,292,0.0,2.5,87,0.02,,,0.02,WUHU21623XXSP,2013-01-13 14:20:00,
2013-01-13 08:25:00,64.8,60.8,29.73,WNW,292,0.0,0.0,87,0.04,,,0.04,WUHU21623XXSP,2013-01-13 14:25:00,
2013-01-13 08:30:00,64.8,60.8,29.73,WNW,292,0.0,0.0,87,0.04,,,0.04,WUHU21623XXSP,2013-01-13 14:30:00,
2013-01-13 08:35:00,64.6,60.7,29.73,WNW,292,0.0,0.0,87,0.04,,,0.04,WUHU21623XXSP,2013-01-13 14:35:00,
2013-01-13 08:40:00,64.6,60.7,29.73,WNW,292,0.0,0.0,87,0.04,,,0.04,WUHU21623XXSP,2013-01-13 14:40:00,
2013-01-13 08:45:00,64.6,60.7,29.73,WNW,292,0.0,0.0,87,0.04,,,0.04,WUHU21623XXSP,2013-01-13 14:45:00,
2013-01-13 08:50:00,64.6,60.7,29.73,WNW,292,0.0,0.0,87,0.04,,,0.04,WUHU21623XXSP,2013-01-13 14:50:00,
2013-01-13 08:55:00,64.6,60.7,29.74,WNW,292,0.0,0.0,87,0.04,,,0.04,WUHU21623XXSP,2013-01-13 14:55:00,
2013-01-13 09:00:00,64.6,61.0,29.74,WNW,292,0.0,0.0,88,0.04,,,0.04,WUHU21623XXSP,2013-01-13 15:00:00,
2013-01-13 09:05:00,64.8,61.2,29.74,WNW,292,0.0,0.0,88,0.02,,,0.04,WUHU21623XXSP,2013-01-13 15:05:00,
2013-01-13 09:10:00,64.9,61.3,29.74,WNW,292,0.0,0.0,88,0.02,,,0.04,WUHU21623XXSP,2013-01-13 15:10:00,
2013-01-13 09:15:00,64.9,61.3,29.73,WNW,292,0.0,0.0,88,0.02,,,0.04,WUHU21623XXSP,2013-01-13 15:15:00,
2013-01-13 09:20:00,65.1,61.5,29.74,WNW,292,0.0,0.0,88,0.02,,,0.04,WUHU21623XXSP,2013-01-13 15:20:00,
2013-01-13 09:25:00,65.3,61.3,29.73,WNW,292,0.0,0.0,87,0.00,,,0.04,WUHU21623XXSP,2013-01-13 15:25:00,
2013-01-13 09:30:00,65.5,61.5,29.74,WNW,292,0.0,0.0,87,0.00,,,0.04,WUHU21623XXSP,2013-01-13 15:30:00,
2013-01-13 09:35:00,65.5,61.5,29.74,WNW,292,0.0,0.0,87,0.00,,,0.04,WUHU21623XXSP,2013-01-13 15:35:00,
2013-01-13 09:40:00,65.8,61.8,29.74,West,270,0.0,0.0,87,0.00,,,0.04,WUHU21623XXSP,2013-01-13 15:40:00,
2013-01-13 09:45:00,65.8,61.8,29.74,WNW,292,0.0,0.0,87,0.00,,,0.04,WUHU21623XXSP,2013-01-13 15:45:00,
2013-01-13 09:50:00,66.0,62.0,29.74,WNW,292,0.0,0.0,87,0.00,,,0.04,WUHU21623XXSP,2013-01-13 15:50:00,
2013-01-13 09:55:00,66.0,62.0,29.74,West,270,0.0,0.0,87,0.00,,,0.04,WUHU21623XXSP,2013-01-13 15:55:00,
2013-01-13 10:00:00,66.0,62.0,29.74,West,270,0.0,0.0,87,0.00,,,0.04,WUHU21623XXSP,2013-01-13 16:00:00,
2013-01-13 10:05:00,66.4,62.7,29.74,West,270,0.0,0.0,88,0.00,,,0.04,WUHU21623XXSP,2013-01-13 16:05:00,
2013-01-13 10:10:00,66.4,62.7,29.74,WSW,247,3.6,3.6,88,0.00,,,0.04,WUHU21623XXSP,2013-01-13 16:10:00,
2013-01-13 10:15:00,66.4,62.7,29.74,WSW,247,0.0,3.6,88,0.00,,,0.04,WUHU21623XXSP,2013-01-13 16:15:00,
2013-01-13 10:20:00,66.4,62.7,29.74,WSW,247,0.0,0.0,88,0.00,,,0.04,WUHU21623XXSP,2013-01-13 16:20:00,
2013-01-13 10:25:00,66.6,62.9,29.73,WSW,247,0.0,0.0,88,0.00,,,0.04,WUHU21623XXSP,2013-01-13 16:25:00,
2013-01-13 10:30:00,66.7,63.0,29.73,WSW,247,0.0,0.0,88,0.00,,,0.04,WUHU21623XXSP,2013-01-13 16:30:00,
2013-01-13 10:35:00,66.7,63.0,29.73,West,270,3.6,3.6,88,0.00,,,0.04,WUHU21623XXSP,2013-01-13 16:35:00,
2013-01-13 10:40:00,66.9,62.9,29.73,West,270,0.0,3.6,87,0.00,,,0.04,WUHU21623XXSP,2013-01-13 16:40:00,
2013-01-13 10:45:00,66.9,62.9,29.73,West,270,0.0,0.0,87,0.00,,,0.04,WUHU21623XXSP,2013-01-13 16:45:00,
2013-01-13 10:50:00,66.9,62.9,29.73,West,270,1.6,1.6,87,0.00,,,0.04,WUHU21623XXSP,2013-01-13 16:50:00,
2013-01-13 10:55:00,67.1,63.1,29.72,West,270,0.0,1.6,87,0.00,,,0.04,WUHU21623XXSP,2013-01-13 16:55:00,
2013-01-13 11:00:00,67.1,63.1,29.72,WSW,247,0.0,0.0,87,0.00,,,0.04,WUHU21623XXSP,2013-01-13 17:00:00,
2013-01-13 11:05:00,67.3,63.1,29.72,WSW,247,0.0,0.0,87,0.00,,,0.04,WUHU21623XXSP,2013-01-13 17:05:00,
2013-01-13 11:10:00,67.3,63.2,29.72,WSW,247,0.0,0.0,87,0.00,,,0.04,WUHU21623XXSP,2013-01-13 17:10:00,
2013-01-13 11:15:00,67.3,63.2,29.71,WSW,247,0.0,0.0,87,0.00,,,0.04,WUHU21623XXSP,2013-01-13 17:15:00,
2013-01-13 11:20:00,67.6,63.6,29.71,WSW,247,2.5,2.5,87,0.00,,,0.04,WUHU21623XXSP,2013-01-13 17:20:00,
2013-01-13 11:25:00,67.8,63.8,29.71,West,270,0.0,2.5,87,0.00,,,0.04,WUHU21623XXSP,2013-01-13 17:25:00,
2013-01-13 11:30:00,67.8,63.8,29.70,WNW,292,0.0,6.0,87,0.00,,,0.04,WUHU21623XXSP,2013-01-13 17:30:00,
2013-01-13 11:35:00,68.2,64.1,29.70,WNW,292,0.0,6.0,87,0.00,,,0.04,WUHU21623XXSP,2013-01-13 17:35:00,
2013-01-13 11:40:00,68.7,64.3,29.70,WNW,292,1.6,1.8,86,0.00,,,0.04,WUHU21623XXSP,2013-01-13 17:40:00,
2013-01-13 11:45:00,68.9,64.5,29.70,WNW,292,0.0,1.8,86,0.00,,,0.04,WUHU21623XXSP,2013-01-13 17:45:00,
2013-01-13 11:50:00,69.1,64.7,29.70,West,270,0.0,1.6,86,0.00,,,0.04,WUHU21623XXSP,2013-01-13 17:50:00,
2013-01-13 11:55:00,69.1,64.3,29.70,WNW,292,2.5,2.5,85,0.00,,,0.04,WUHU21623XXSP,2013-01-13 17:55:00,
2013-01-13 12:00:00,69.1,64.3,29.70,West,270,0.0,2.5,85,0.00,,,0.04,WUHU21623XXSP,2013-01-13 18:00:00,
2013-01-13 12:05:00,69.3,64.5,29.70,West,270,0.0,0.0,85,0.00,,,0.04,WUHU21623XXSP,2013-01-13 18:05:00,
2013-01-13 12:10:00,69.4,64.3,29.70,West,270,2.7,2.7,84,0.00,,,0.04,WUHU21623XXSP,2013-01-13 18:10:00,
2013-01-13 12:15:00,69.4,64.3,29.70,West,270,0.0,2.7,84,0.00,,,0.04,WUHU21623XXSP,2013-01-13 18:15:00,
2013-01-13 12:20:00,69.4,64.3,29.69,West,270,0.0,0.0,84,0.00,,,0.04,WUHU21623XXSP,2013-01-13 18:20:00,
2013-01-13 12:25:00,69.4,64.3,29.69,ESE,112,0.0,0.0,84,0.00,,,0.04,WUHU21623XXSP,2013-01-13 18:25:00,
2013-01-13 12:30:00,69.4,64.3,29.69,ESE,112,0.0,1.8,84,0.00,,,0.04,WUHU21623XXSP,2013-01-13 18:30:00,
2013-01-13 12:35:00,69.6,64.2,29.69,ESE,112,0.0,1.8,83,0.00,,,0.04,WUHU21623XXSP,2013-01-13 18:35:00,
2013-01-13 12:40:00,69.4,64.0,29.68,West,270,0.7,1.3,83,0.00,,,0.04,WUHU21623XXSP,2013-01-13 18:40:00,
2013-01-13 12:45:00,69.4,64.0,29.68,West,270,0.0,1.3,83,0.00,,,0.04,WUHU21623XXSP,2013-01-13 18:45:00,
2013-01-13 12:51:00,69.6,64.2,29.68,West,270,3.8,3.8,83,0.00,,,0.04,WUHU21623XXSP,2013-01-13 18:51:00,
2013-01-13 12:56:00,69.6,64.2,29.67,South,180,0.0,3.8,83,0.00,,,0.04,WUHU21623XXSP,2013-01-13 18:56:00,
2013-01-13 13:01:00,69.6,64.2,29.67,South,180,0.0,1.1,83,0.00,,,0.04,WUHU21623XXSP,2013-01-13 19:01:00,
2013-01-13 13:06:00,69.6,63.8,29.67,SW,225,0.9,0.9,82,0.00,,,0.04,WUHU21623XXSP,2013-01-13 19:06:00,
2013-01-13 13:11:00,70.2,64.4,29.66,WSW,247,5.1,5.1,82,0.00,,,0.04,WUHU21623XXSP,2013-01-13 19:11:00,
2013-01-13 13:16:00,70.3,64.5,29.66,West,270,0.0,5.1,82,0.00,,,0.04,WUHU21623XXSP,2013-01-13 19:16:00,
2013-01-13 13:21:00,70.5,64.4,29.67,ESE,112,0.0,0.2,81,0.00,,,0.04,WUHU21623XXSP,2013-01-13 19:21:00,
2013-01-13 13:26:00,70.7,64.6,29.67,West,270,0.0,0.2,81,0.00,,,0.04,WUHU21623XXSP,2013-01-13 19:26:00,
2013-01-13 13:31:00,70.7,64.6,29.66,West,270,0.0,2.2,81,0.00,,,0.04,WUHU21623XXSP,2013-01-13 19:31:00,
2013-01-13 13:36:00,70.9,64.7,29.66,West,270,0.0,2.2,81,0.00,,,0.04,WUHU21623XXSP,2013-01-13 19:36:00,
2013-01-13 13:41:00,70.7,64.6,29.66,West,270,4.3,4.3,80,0.00,,,0.04,WUHU21623XXSP,2013-01-13 19:41:00,
2013-01-13 13:46:00,70.7,64.2,29.66,West,270,4.3,4.3,80,0.00,,,0.04,WUHU21623XXSP,2013-01-13 19:46:00,
2013-01-13 13:51:00,70.7,64.2,29.66,NE,45,0.0,4.3,80,0.00,,,0.04,WUHU21623XXSP,2013-01-13 19:51:00,
2013-01-13 13:56:00,70.7,64.6,29.66,NE,45,0.9,0.9,81,0.00,,,0.04,WUHU21623XXSP,2013-01-13 19:56:00,
2013-01-13 14:01:00,70.5,64.4,29.66,East,90,0.0,0.9,81,0.00,,,0.04,WUHU21623XXSP,2013-01-13 20:01:00,
2013-01-13 14:06:00,70.5,64.0,29.66,NW,315,0.0,0.4,80,0.00,,,0.04,WUHU21623XXSP,2013-01-13 20:06:00,
2013-01-13 14:11:00,70.5,64.0,29.66,ESE,112,0.0,0.4,80,0.00,,,0.04,WUHU21623XXSP,2013-01-13 20:11:00,
2013-01-13 14:16:00,70.5,64.0,29.66,ESE,112,1.1,1.1,80,0.00,,,0.04,WUHU21623XXSP,2013-01-13 20:16:00,
2013-01-13 14:21:00,70.7,64.2,29.65,North,0,0.0,1.3,80,0.00,,,0.04,WUHU21623XXSP,2013-01-13 20:21:00,
2013-01-13 14:26:00,70.9,64.4,29.65,North,0,1.3,1.3,80,0.00,,,0.04,WUHU21623XXSP,2013-01-13 20:26:00,
2013-01-13 14:31:00,70.7,64.2,29.65,West,270,3.8,3.8,80,0.00,,,0.04,WUHU21623XXSP,2013-01-13 20:31:00,
2013-01-13 14:36:00,70.9,64.4,29.65,WSW,247,0.0,3.8,80,0.00,,,0.04,WUHU21623XXSP,2013-01-13 20:36:00,
2013-01-13 14:41:00,70.9,64.4,29.65,WSW,247,0.9,0.9,80,0.00,,,0.04,WUHU21623XXSP,2013-01-13 20:41:00,
2013-01-13 14:46:00,71.1,64.6,29.65,WSW,247,0.0,0.9,80,0.00,,,0.04,WUHU21623XXSP,2013-01-13 20:46:00,
2013-01-13 14:51:00,70.9,64.4,29.65,West,270,0.0,0.7,80,0.00,,,0.04,WUHU21623XXSP,2013-01-13 20:51:00,
2013-01-13 14:56:00,70.9,64.4,29.65,North,0,0.0,1.3,80,0.00,,,0.04,WUHU21623XXSP,2013-01-13 20:56:00,
2013-01-13 15:01:00,70.9,64.4,29.65,NNW,337,0.0,1.6,80,0.00,,,0.04,WUHU21623XXSP,2013-01-13 21:01:00,
2013-01-13 15:06:00,71.1,64.6,29.64,North,0,0.0,1.6,80,0.00,,,0.04,WUHU21623XXSP,2013-01-13 21:06:00,
2013-01-13 15:11:00,70.9,64.4,29.65,North,0,0.0,0.4,80,0.00,,,0.04,WUHU21623XXSP,2013-01-13 21:11:00,
2013-01-13 15:16:00,70.9,64.4,29.65,North,0,0.0,0.0,80,0.00,,,0.04,WUHU21623XXSP,2013-01-13 21:16:00,
2013-01-13 15:21:00,70.9,64.4,29.65,WNW,292,0.0,0.0,80,0.00,,,0.04,WUHU21623XXSP,2013-01-13 21:21:00,
2013-01-13 15:26:00,70.9,64.4,29.65,NW,315,0.0,0.0,80,0.00,,,0.04,WUHU21623XXSP,2013-01-13 21:26:00,
2013-01-13 15:31:00,70.9,64.4,29.65,WSW,247,1.3,1.8,80,0.00,,,0.04,WUHU21623XXSP,2013-01-13 21:31:00,
2013-01-13 15:36:00,70.7,64.4,29.65,WNW,292,0.0,1.8,80,0.00,,,0.04,WUHU21623XXSP,2013-01-13 21:36:00,
2013-01-13 15:41:00,70.7,64.2,29.65,NW,315,0.0,1.6,80,0.00,,,0.04,WUHU21623XXSP,2013-01-13 21:41:00,
2013-01-13 15:46:00,70.5,64.0,29.65,ESE,112,0.0,0.0,80,0.00,,,0.04,WUHU21623XXSP,2013-01-13 21:46:00,
2013-01-13 15:51:00,70.3,63.9,29.65,ESE,112,0.0,2.9,80,0.00,,,0.04,WUHU21623XXSP,2013-01-13 21:51:00,
2013-01-13 15:56:00,70.3,63.9,29.64,West,270,0.0,2.9,80,0.00,,,0.04,WUHU21623XXSP,2013-01-13 21:56:00,
2013-01-13 16:01:00,70.5,64.0,29.64,WNW,292,2.0,2.2,80,0.00,,,0.04,WUHU21623XXSP,2013-01-13 22:01:00,
2013-01-13 16:06:00,70.5,64.0,29.65,NW,315,0.0,6.3,80,0.00,,,0.04,WUHU21623XXSP,2013-01-13 22:06:00,
2013-01-13 16:11:00,70.5,64.0,29.65,West,270,0.0,6.3,80,0.00,,,0.04,WUHU21623XXSP,2013-01-13 22:11:00,
2013-01-13 16:16:00,70.5,64.0,29.65,West,270,0.0,2.7,80,0.00,,,0.04,WUHU21623XXSP,2013-01-13 22:16:00,
2013-01-13 16:21:00,70.2,64.4,29.65,WNW,292,3.1,3.1,82,0.00,,,0.04,WUHU21623XXSP,2013-01-13 22:21:00,
2013-01-13 16:26:00,69.6,63.8,29.65,West,270,3.8,3.8,82,0.02,,,0.06,WUHU21623XXSP,2013-01-13 22:26:00,
2013-01-13 16:31:00,69.4,64.0,29.65,West,270,0.0,3.8,83,0.02,,,0.06,WUHU21623XXSP,2013-01-13 22:31:00,
2013-01-13 16:36:00,69.1,64.0,29.65,WNW,292,1.1,1.1,84,0.02,,,0.06,WUHU21623XXSP,2013-01-13 22:36:00,
2013-01-13 16:41:00,68.9,64.0,29.65,WNW,292,0.0,1.1,84,0.02,,,0.06,WUHU21623XXSP,2013-01-13 22:41:00,
2013-01-13 16:46:00,68.9,63.8,29.65,NW,315,0.0,0.0,84,0.02,,,0.06,WUHU21623XXSP,2013-01-13 22:46:00,
2013-01-13 16:51:00,68.7,64.0,29.66,WNW,292,0.0,1.6,85,0.04,,,0.08,WUHU21623XXSP,2013-01-13 22:51:00,
2013-01-13 16:56:00,68.4,63.7,29.66,NNE,22,0.0,1.6,85,0.06,,,0.08,WUHU21623XXSP,2013-01-13 22:56:00,
2013-01-13 17:01:00,68.2,63.5,29.66,NNW,337,0.0,0.0,85,0.08,,,0.12,WUHU21623XXSP,2013-01-13 23:01:00,
2013-01-13 17:06:00,67.8,63.5,29.66,NNW,337,0.0,0.0,86,0.08,,,0.12,WUHU21623XXSP,2013-01-13 23:06:00,
2013-01-13 17:11:00,67.8,63.5,29.66,NNW,337,0.0,0.0,86,0.08,,,0.12,WUHU21623XXSP,2013-01-13 23:11:00,
2013-01-13 17:16:00,67.8,63.8,29.66,WSW,247,0.0,0.0,87,0.08,,,0.12,WUHU21623XXSP,2013-01-13 23:16:00,
2013-01-13 17:21:00,67.8,63.8,29.68,West,270,6.3,6.3,87,0.08,,,0.12,WUHU21623XXSP,2013-01-13 23:21:00,
2013-01-13 17:26:00,67.8,63.8,29.69,WSW,247,0.0,6.3,87,0.12,,,0.14,WUHU21623XXSP,2013-01-13 23:26:00,
2013-01-13 17:31:00,67.6,63.6,29.68,WSW,247,0.0,6.3,87,0.14,,,0.21,WUHU21623XXSP,2013-01-13 23:31:00,
2013-01-13 17:36:00,67.3,63.2,29.69,West,270,0.0,0.0,87,0.20,,,0.27,WUHU21623XXSP,2013-01-13 23:36:00,
2013-01-13 17:41:00,67.3,63.2,29.69,West,270,0.0,0.0,87,0.24,,,0.27,WUHU21623XXSP,2013-01-13 23:41:00,
2013-01-13 17:46:00,67.3,63.2,29.68,West,270,0.0,0.0,87,0.24,,,0.31,WUHU21623XXSP,2013-01-13 23:46:00,
2013-01-13 17:51:00,67.1,63.4,29.68,West,270,0.0,0.0,88,0.26,,,0.35,WUHU21623XXSP,2013-01-13 23:51:00,
2013-01-13 17:56:00,67.1,63.4,29.67,West,270,0.0,0.0,88,0.24,,,0.35,WUHU21623XXSP,2013-01-13 23:56:00,
2013-01-13 18:01:00,67.1,63.4,29.68,West,270,0.0,0.0,88,0.24,,,0.37,WUHU21623XXSP,2013-01-14 00:01:00,
2013-01-13 18:06:00,67.3,63.6,29.68,West,270,0.0,0.0,88,0.24,,,0.37,WUHU21623XXSP,2013-01-14 00:06:00,
2013-01-13 18:11:00,67.3,63.6,29.67,West,270,0.0,0.0,88,0.24,,,0.37,WUHU21623XXSP,2013-01-14 00:11:00,
2013-01-13 18:16:00,67.3,63.6,29.67,West,270,0.0,0.0,88,0.24,,,0.37,WUHU21623XXSP,2013-01-14 00:16:00,
2013-01-13 18:21:00,67.3,63.6,29.68,West,270,0.0,0.0,88,0.20,,,0.37,WUHU21623XXSP,2013-01-14 00:21:00,
2013-01-13 18:26:00,67.3,63.6,29.67,WSW,247,0.0,0.0,88,0.18,,,0.39,WUHU21623XXSP,2013-01-14 00:26:00,
2013-01-13 18:31:00,67.3,63.6,29.67,WSW,247,0.0,0.0,88,0.12,,,0.39,WUHU21623XXSP,2013-01-14 00:31:00,
2013-01-13 18:36:00,67.3,63.6,29.68,WSW,247,0.0,0.0,88,0.12,,,0.39,WUHU21623XXSP,2013-01-14 00:36:00,
2013-01-13 18:41:00,67.6,63.8,29.69,WSW,247,0.0,0.0,88,0.08,,,0.39,WUHU21623XXSP,2013-01-14 00:41:00,
2013-01-13 18:46:00,67.5,63.8,29.70,NNW,337,0.0,0.0,88,0.10,,,0.41,WUHU21623XXSP,2013-01-14 00:46:00,
2013-01-13 18:51:00,67.3,63.6,29.70,West,270,0.0,0.0,88,0.06,,,0.41,WUHU21623XXSP,2013-01-14 00:51:00,
2013-01-13 18:56:00,67.3,63.6,29.70,West,270,0.0,0.0,88,0.06,,,0.41,WUHU21623XXSP,2013-01-14 00:56:00,
2013-01-13 19:01:00,67.1,63.6,29.70,West,270,0.7,0.7,88,0.16,,,0.53,WUHU21623XXSP,2013-01-14 01:01:00,
2013-01-13 19:06:00,66.9,63.2,29.69,North,0,0.0,0.7,88,0.18,,,0.55,WUHU21623XXSP,2013-01-14 01:06:00,
2013-01-13 19:11:00,66.7,63.0,29.70,NNW,337,0.0,0.7,88,0.26,,,0.55,WUHU21623XXSP,2013-01-14 01:11:00,
2013-01-13 19:16:00,66.4,62.9,29.71,NNW,337,0.0,0.0,88,0.29,,,0.65,WUHU21623XXSP,2013-01-14 01:16:00,
2013-01-13 19:21:00,66.0,62.3,29.70,SSW,202,6.0,6.0,88,0.41,,,0.80,WUHU21623XXSP,2013-01-14 01:21:00,
2013-01-13 19:26:00,65.8,62.2,29.71,SSW,202,3.4,6.0,88,0.47,,,0.80,WUHU21623XXSP,2013-01-14 01:26:00,
2013-01-13 19:31:00,65.3,61.7,29.71,WSW,247,0.0,6.0,88,0.55,,,0.88,WUHU21623XXSP,2013-01-14 01:31:00,
2013-01-13 19:36:00,64.6,61.3,29.72,WSW,247,0.0,0.0,88,0.61,,,0.98,WUHU21623XXSP,2013-01-14 01:36:00,
2013-01-13 19:41:00,64.2,60.8,29.72,ENE,67,0.0,0.0,88,0.63,,,1.04,WUHU21623XXSP,2013-01-14 01:41:00,
2013-01-13 19:46:00,64.0,60.5,29.73,WSW,247,0.0,0.0,88,0.67,,,1.08,WUHU21623XXSP,2013-01-14 01:46:00,
2013-01-13 19:51:00,63.3,59.8,29.74,SW,225,0.0,0.0,88,0.71,,,1.12,WUHU21623XXSP,2013-01-14 01:51:00,
2013-01-13 19:56:00,62.8,59.6,29.74,WNW,292,0.0,0.0,88,0.67,,,1.12,WUHU21623XXSP,2013-01-14 01:56:00,
2013-01-13 20:01:00,62.8,59.2,29.73,NNE,22,0.0,0.0,88,0.61,,,1.12,WUHU21623XXSP,2013-01-14 02:01:00,
2013-01-13 20:06:00,62.2,58.7,29.73,WSW,247,0.0,0.0,88,0.59,,,1.16,WUHU21623XXSP,2013-01-14 02:06:00,
2013-01-13 20:11:00,62.1,58.5,29.73,East,90,0.2,0.2,88,0.55,,,1.18,WUHU21623XXSP,2013-01-14 02:11:00,
2013-01-13 20:16:00,61.7,58.3,29.73,NNW,337,0.0,0.2,88,0.47,,,1.18,WUHU21623XXSP,2013-01-14 02:16:00,
2013-01-13 20:21:00,61.5,58.0,29.73,NE,45,0.0,0.0,88,0.35,,,1.20,WUHU21623XXSP,2013-01-14 02:21:00,
2013-01-13 20:26:00,61.3,57.8,29.74,NW,315,0.0,0.0,88,0.33,,,1.20,WUHU21623XXSP,2013-01-14 02:26:00,
2013-01-13 20:31:00,61.2,57.6,29.73,NNW,337,0.0,0.0,88,0.22,,,1.20,WUHU21623XXSP,2013-01-14 02:31:00,
2013-01-13 20:36:00,61.0,57.4,29.73,NNW,337,0.0,0.9,88,0.16,,,1.20,WUHU21623XXSP,2013-01-14 02:36:00,
2013-01-13 20:41:00,61.0,57.4,29.74,NW,315,5.8,5.8,88,0.16,,,1.20,WUHU21623XXSP,2013-01-14 02:41:00,
2013-01-13 20:46:00,60.6,57.1,29.74,NNW,337,0.0,5.8,88,0.10,,,1.20,WUHU21623XXSP,2013-01-14 02:46:00,
2013-01-13 20:51:00,60.6,57.1,29.74,NNW,337,2.9,2.9,88,0.10,,,1.22,WUHU21623XXSP,2013-01-14 02:51:00,
2013-01-13 20:56:00,60.4,56.9,29.73,NNW,337,0.0,2.9,88,0.10,,,1.22,WUHU21623XXSP,2013-01-14 02:56:00,
2013-01-13 21:01:00,60.4,56.9,29.74,WSW,247,0.0,0.0,88,0.08,,,1.22,WUHU21623XXSP,2013-01-14 03:01:00,
2013-01-13 21:06:00,60.1,56.6,29.74,SSE,157,0.0,0.0,88,0.04,,,1.22,WUHU21623XXSP,2013-01-14 03:06:00,
2013-01-13 21:11:00,59.7,56.2,29.75,SW,225,0.0,0.0,88,0.04,,,1.22,WUHU21623XXSP,2013-01-14 03:11:00,
2013-01-13 21:16:00,59.4,55.8,29.76,NE,45,0.0,0.0,88,0.02,,,1.22,WUHU21623XXSP,2013-01-14 03:16:00,
2013-01-13 21:21:00,58.8,55.3,29.77,NE,45,0.0,7.8,88,0.02,,,1.22,WUHU21623XXSP,2013-01-14 03:21:00,
2013-01-13 21:26:00,58.3,54.8,29.76,ENE,67,2.0,7.8,88,0.02,,,1.22,WUHU21623XXSP,2013-01-14 03:26:00,
2013-01-13 21:31:00,57.4,53.9,29.76,ENE,67,0.7,2.0,87,0.02,,,1.22,WUHU21623XXSP,2013-01-14 03:31:00,
2013-01-13 21:36:00,57.0,53.2,29.76,NNE,22,0.0,0.7,87,0.04,,,1.25,WUHU21623XXSP,2013-01-14 03:36:00,
2013-01-13 21:41:00,56.7,53.3,29.77,NNE,22,0.0,0.0,88,0.04,,,1.25,WUHU21623XXSP,2013-01-14 03:41:00,
2013-01-13 21:46:00,56.5,53.0,29.77,North,0,0.0,0.0,88,0.04,,,1.25,WUHU21623XXSP,2013-01-14 03:46:00,
2013-01-13 21:51:00,56.1,52.6,29.76,NE,45,0.0,4.0,88,0.02,,,1.25,WUHU21623XXSP,2013-01-14 03:51:00,
2013-01-13 21:56:00,55.9,52.4,29.76,ENE,67,0.0,4.0,88,0.02,,,1.25,WUHU21623XXSP,2013-01-14 03:56:00,
2013-01-13 22:01:00,55.6,52.1,29.78,NE,45,0.0,5.4,88,0.02,,,1.25,WUHU21623XXSP,2013-01-14 04:01:00,
2013-01-13 22:06:00,55.4,51.9,29.78,WNW,292,0.0,5.4,88,0.02,,,1.25,WUHU21623XXSP,2013-01-14 04:06:00,
2013-01-13 22:11:00,55.2,51.7,29.78,WNW,292,0.0,0.0,88,0.02,,,1.25,WUHU21623XXSP,2013-01-14 04:11:00,
2013-01-13 22:16:00,54.9,51.3,29.78,East,90,0.0,0.0,88,0.02,,,1.25,WUHU21623XXSP,2013-01-14 04:16:00,
2013-01-13 22:21:00,54.7,51.2,29.78,NW,315,0.0,0.0,88,0.02,,,1.25,WUHU21623XXSP,2013-01-14 04:21:00,
2013-01-13 22:26:00,54.5,51.0,29.78,NNW,337,0.0,0.0,88,0.02,,,1.25,WUHU21623XXSP,2013-01-14 04:26:00,
2013-01-13 22:31:00,54.3,50.8,29.79,NNE,22,0.0,0.0,88,0.00,,,1.25,WUHU21623XXSP,2013-01-14 04:31:00,
2013-01-13 22:36:00,54.1,50.6,29.79,North,0,0.0,0.0,88,0.00,,,1.25,WUHU21623XXSP,2013-01-14 04:36:00,
2013-01-13 22:41:00,54.1,50.6,29.80,North,0,0.0,0.0,88,0.02,,,1.25,WUHU21623XXSP,2013-01-14 04:41:00,
2013-01-13 22:46:00,53.8,50.3,29.80,NE,45,0.0,0.0,88,0.02,,,1.27,WUHU21623XXSP,2013-01-14 04:46:00,
2013-01-13 22:51:00,53.8,50.3,29.80,NE,45,0.0,0.0,88,0.02,,,1.27,WUHU21623XXSP,2013-01-14 04:51:00,
2013-01-13 22:56:00,53.4,49.9,29.79,NE,45,0.0,0.0,88,0.02,,,1.27,WUHU21623XXSP,2013-01-14 04:56:00,
2013-01-13 23:02:00,53.2,49.7,29.79,NNE,22,0.0,0.0,88,0.02,,,1.27,WUHU21623XXSP,2013-01-14 05:02:00,
2013-01-13 23:07:00,53.2,49.7,29.80,NNE,22,0.0,0.0,88,0.02,,,1.27,WUHU21623XXSP,2013-01-14 05:07:00,
2013-01-13 23:12:00,52.9,49.4,29.81,SW,225,0.0,2.0,88,0.02,,,1.27,WUHU21623XXSP,2013-01-14 05:12:00,
2013-01-13 23:17:00,52.3,49.0,29.80,NW,315,0.0,2.0,88,0.04,,,1.27,WUHU21623XXSP,2013-01-14 05:17:00,
2013-01-13 23:22:00,52.2,48.8,29.80,ENE,67,0.0,0.0,88,0.04,,,1.29,WUHU21623XXSP,2013-01-14 05:22:00,
2013-01-13 23:27:00,52.0,48.5,29.80,ENE,67,0.0,0.0,88,0.04,,,1.29,WUHU21623XXSP,2013-01-14 05:27:00,
2013-01-13 23:32:00,51.8,48.3,29.81,ENE,67,0.0,0.0,88,0.04,,,1.29,WUHU21623XXSP,2013-01-14 05:32:00,
2013-01-13 23:37:00,51.6,48.1,29.81,ESE,112,0.0,0.0,88,0.04,,,1.29,WUHU21623XXSP,2013-01-14 05:37:00,
2013-01-13 23:42:00,51.4,47.9,29.81,NNW,337,0.0,0.0,88,0.02,,,1.29,WUHU21623XXSP,2013-01-14 05:42:00,
2013-01-13 23:47:00,51.1,47.6,29.81,NNW,337,0.0,0.0,88,0.02,,,1.29,WUHU21623XXSP,2013-01-14 05:47:00,
2013-01-13 23:52:00,50.7,47.2,29.81,NW,315,0.0,0.0,88,0.04,,,1.29,WUHU21623XXSP,2013-01-14 05:52:00,
2013-01-13 23:57:00,50.5,47.2,29.81,NW,315,0.0,0.0,88,0.04,,,1.31,WUHU21623XXSP,2013-01-14 05:57:00,